Terminal Aerodrome Forecast
Issued by NWS Jackson, KY

Home | Current Version | Previous Version | Text Only | Print | Product List | Glossary On
Versions: 1 2 3 4 5 6 7 8 9 10 11 12 13 14 15 16 17
328
FTUS43 KJKL 261932 AAB
TAFLOZ
TAF AMD
KLOZ 261932Z 2620/2718 23009KT 1SM -RA BR VCSH SCT010 BKN019 OVC025
     FM262300 VRB05KT 5SM -SHRA OVC030
     FM270000 20005KT P6SM VCSH BKN030
     FM270600 VRB04KT P6SM BKN050=

USA.gov is the U.S. government's official web portal to all federal, state and local government web resources and services.